Concordia, KS

2:44 AM CDT on July 24, 2016 (GMT -0500)
Blosser Municipal

Weather History for KCNK - May, 2013

Change the Weather History Date:

Friday, May 24, 2013

  Actual Average Record
Temperature  
Mean Temperature 65 °F 66 °F  
Max Temperature 77 °F 77 °F 99 °F (1967)
Min Temperature 52 °F 55 °F 36 °F (1924)
Degree Days  
Heating Degree Days 0 3  
Month to date heating degree days 152 117  
Since 1 July heating degree days 5499 5381  
Cooling Degree Days 0 3  
Month to date cooling degree days 41 43  
Year to date cooling degree days 51 60  
Growing Degree Days 14 (Base 50)    
Moisture  
Dew Point 56 °F    
Average Humidity 73    
Maximum Humidity 93    
Minimum Humidity 53    
Precipitation  
Precipitation 0.00 in 0.14 in 4.72 in (1970)
Month to date precipitation 4.15 3.16  
Year to date precipitation 10.00 8.99  
Snow  
Snow 0.00 in 0.00 in T in (1970)
Month to date snowfall T 0.0  
Year to date snowfall 20.3 13.7  
Since 1 July snowfall 28.8 20.2  
Snow Depth 0.00 in    
Sea Level Pressure  
Sea Level Pressure 30.13 in    
Wind  
Wind Speed 16 mph (SE)    
Max Wind Speed 25 mph    
Max Gust Speed 33 mph    
Visibility 10 miles    
Events      
T = Trace of Precipitation, MM = Missing Value Source: NWS Daily Summary

Daily Weather History Graph

Daily Weather History Graph

Search for Another Location

Airport or City:

Trip Planner

Search our weather history database for the weather conditions in past years. The results will help you decide how hot, cold, wet, or windy it might be!

Date:

Astronomy

May. 24, 2013 Rise Set
Actual Time 6:09 AM CDT 8:46 PM CDT
Civil Twilight 5:38 AM CDT 9:17 PM CDT
Nautical Twilight 4:59 AM CDT 9:56 PM CDT
Astronomical Twilight 4:15 AM CDT 10:40 PM CDT
Moon 8:29 PM CDT 5:42 AM CDT
Length of Visible Light 15h 39m
Length of Day
14h 36m
Full, 100% of the Moon is Illuminated
May 24
Full
May 24
Full
May 31
Last Quarter
Jun 8
New
Jun 16
First Quarter

Hourly Weather History & Observations

Time (CDT) Temp. Dew Point Humidity Pressure Visibility Wind Dir Wind Speed Gust Speed Precip Events Conditions
12:55 AM 54.0 °F 51.1 °F 90% 30.19 in 10.0 mi SE 8.1 mph - N/A   Clear
1:55 AM 54.0 °F 50.0 °F 86% 30.21 in 10.0 mi SE 9.2 mph - N/A   Clear
2:55 AM 54.0 °F 51.1 °F 90% 30.21 in 10.0 mi SE 10.4 mph - N/A   Clear
3:55 AM 53.1 °F 50.0 °F 89% 30.22 in 10.0 mi SE 9.2 mph - N/A   Clear
4:55 AM 54.0 °F 50.0 °F 86% 30.21 in 10.0 mi ESE 11.5 mph - N/A   Scattered Clouds
5:55 AM 53.1 °F 50.0 °F 89% 30.20 in 10.0 mi ESE 11.5 mph - N/A   Overcast
6:55 AM 55.0 °F 50.0 °F 83% 30.22 in 10.0 mi SE 16.1 mph - N/A   Overcast
7:55 AM 57.0 °F 51.1 °F 81% 30.21 in 10.0 mi SE 13.8 mph - N/A   Mostly Cloudy
8:55 AM 60.1 °F 51.1 °F 72% 30.20 in 10.0 mi SE 21.9 mph 28.8 mph N/A   Clear
9:55 AM 64.0 °F 52.0 °F 65% 30.21 in 10.0 mi SE 18.4 mph 26.5 mph N/A   Partly Cloudy
10:55 AM 68.0 °F 53.1 °F 59% 30.20 in 10.0 mi SSE 17.3 mph 25.3 mph N/A   Clear
11:55 AM 70.0 °F 54.0 °F 57% 30.19 in 10.0 mi SE 18.4 mph 26.5 mph N/A   Scattered Clouds
12:55 PM 72.0 °F 55.0 °F 55% 30.18 in 10.0 mi SSE 17.3 mph 24.2 mph N/A   Overcast
1:55 PM 72.0 °F 55.9 °F 57% 30.15 in 10.0 mi SSE 20.7 mph 28.8 mph N/A   Mostly Cloudy
2:55 PM 73.9 °F 55.9 °F 53% 30.14 in 10.0 mi SSE 18.4 mph 25.3 mph N/A   Partly Cloudy
3:55 PM 75.0 °F 57.9 °F 55% 30.10 in 10.0 mi SSE 19.6 mph 27.6 mph N/A   Clear
4:55 PM 72.0 °F 59.0 °F 64% 30.07 in 10.0 mi SSE 17.3 mph 26.5 mph N/A   Scattered Clouds
5:55 PM 73.9 °F 60.1 °F 62% 30.05 in 10.0 mi SSE 16.1 mph 24.2 mph N/A   Mostly Cloudy
6:55 PM 73.9 °F 60.1 °F 62% 30.02 in 10.0 mi South 19.6 mph 27.6 mph N/A   Scattered Clouds
7:55 PM 73.0 °F 61.0 °F 66% 30.01 in 10.0 mi SSE 13.8 mph - N/A   Overcast
8:55 PM 71.1 °F 61.0 °F 70% 30.01 in 10.0 mi SSE 11.5 mph - N/A   Overcast
9:27 PM 69.8 °F 60.8 °F 73% 30.04 in 10.0 mi SE 13.8 mph - N/A   Overcast
9:48 PM 69.8 °F 60.8 °F 73% 30.05 in 10.0 mi SE 13.8 mph - N/A   Overcast
9:55 PM 70.0 °F 61.0 °F 73% 30.02 in 10.0 mi SE 13.8 mph - N/A   Overcast
10:55 PM 69.1 °F 61.0 °F 75% 30.04 in 10.0 mi SE 15.0 mph - N/A   Scattered Clouds
11:40 PM 69.8 °F 60.8 °F 73% 30.07 in 10.0 mi SSE 16.1 mph 25.3 mph N/A   Mostly Cloudy
11:55 PM 69.1 °F 62.1 °F 78% 30.04 in 10.0 mi SSE 17.3 mph 25.3 mph N/A   Overcast